Regional Weather Roundup
Issued by NWS

Home | Current Version | Previous Version | Text Only | Print | Product List | Glossary Off
Versions: 1 2 3 4 5 6 7 8 9 10 11 12 13 14 15 16 17 18 19 20 21 22 23 24 25 26 27 28 29 30 31 32 33 34 35 36 37 38 39 40 41 42 43 44 45 46 47 48 49 50

000
ASUS43 KLSX 282210
RWRMO

WEATHER SUMMARY FOR MISSOURI
NATIONAL WEATHER SERVICE SPRINGFIELD MO
500 PM CDT SAT MAY 28 2016

NOTE: "FAIR" INDICATES FEW OR NO CLOUDS BELOW 12,000 FEET WITH NO
       SIGNIFICANT WEATHER AND/OR OBSTRUCTIONS TO VISIBILITY.
       CURRENT SKY AND/OR WEATHER CONDITIONS ARE NOT AVAILABLE FOR
       CHILLICOTHE AND FARMINGTON.

MOZ001>031-035>038-043-044-053-054-282300-
...NORTHERN AND WESTERN MISSOURI...

CITY           SKY/WX    TMP DP  RH WIND       PRES   REMARKS
KANSAS CTY INT PTSUNNY   76  59  55 W9G21     29.91S
KANSAS C DTWN  MOSUNNY   77  57  50 W9        29.90R
LEE`S SUMMIT   MOSUNNY   75  58  55 W13       29.92R
ST JOSEPH      PTSUNNY   77  60  55 SW13      29.89R
CHILLICOTHE      N/A     77  61  57 VRB7G16   29.89R
KIRKSVILLE     LGT RAIN  75  59  57 SW15G24   29.88S

$$
MOZ066>068-077>081-088>096-101>105-282300-
...SOUTHWEST MISSOURI...

CITY           SKY/WX    TMP DP  RH WIND       PRES   REMARKS
SPRINGFIELD    MOSUNNY   80  63  55 W9        29.96S
JOPLIN         SUNNY     79  64  60 S13       29.96S
BRANSON        MOSUNNY   84  66  54 S9        29.96F

$$
MOZ032>034-039>042-045>050-055>058-069>072-282300-
...CENTRAL MISSOURI...

CITY           SKY/WX    TMP DP  RH WIND       PRES   REMARKS
COLUMBIA       CLOUDY    81  62  52 SW18G24   29.92R
JEFFERSON CITY MOSUNNY   82  62  50 W15G21    29.90R
ROLLA          CLOUDY    79  66  64 S5        29.92F
SEDALIA        SUNNY     80  61  52 SW13G22   29.93R
WHITEMAN AFB   MOSUNNY   78  62  59 W13       29.91R
WARRENSBURG    MOSUNNY   77  59  53 SW12      29.92R

$$
MOZ051-052-059>065-282300-
...EAST CENTRAL MISSOURI...

CITY           SKY/WX    TMP DP  RH WIND       PRES   REMARKS
ST LOUIS INTL  PTSUNNY   85  66  53 S14G23    29.92S
SPIRIT OF STL  PTSUNNY   84  68  58 S9        29.90S
ST CHARLES     MOSUNNY   84  69  60 S14       29.90S

$$
MOZ072>076-082>087-097>100-106>115-282300-
...SOUTH CENTRAL AND SOUTHEAST MISSOURI...

CITY           SKY/WX    TMP DP  RH WIND       PRES   REMARKS
CAPE GIRARDEAU CLOUDY    80  66  62 S10       29.99S
FARMINGTON     MOSUNNY   79  67  66 S15       29.98F
POPLAR BLUFF   CLOUDY    81  69  67 SW12      29.98F
WEST PLAINS    MOSUNNY   81  64  56 S10G21    30.00S

$$



USA.gov is the U.S. government's official web portal to all federal, state and local government web resources and services.